Weather History for Curacao, Curacao

Change the Weather History Date:

Thursday, May 1, 2014

  Actual Average Record
Temperature  
Mean Temperature 83 °F -  
Max Temperature 88 °F 88 °F 96 °F (2006)
Min Temperature 78 °F 77 °F 77 °F (2008)
Cooling Degree Days 18    
Growing Degree Days 33 (Base 50)    
Moisture  
Dew Point 73 °F    
Average Humidity 72    
Maximum Humidity 84    
Minimum Humidity 48    
Precipitation  
Precipitation 0.00 in 0.03 in - ()
Sea Level Pressure  
Sea Level Pressure 29.89 in    
Wind  
Wind Speed 12 mph ()    
Max Wind Speed 20 mph    
Max Gust Speed -    
Visibility 6.7 miles    
Events      
Averages and records for this station are not official NWS values.
T = Trace of Precipitation, MM = Missing Value Source: Averaged Metar Reports

Daily Weather History Graph

Daily Weather History Graph

Search for Another Location

Airport:

Trip Planner

Search our weather history database for the weather conditions in past years. The results will help you decide how hot, cold, wet, or windy it might be!

Date:

Astronomy

May. 01, 2014 Rise Set
Actual Time 6:16 AM AST 6:49 PM AST
Civil Twilight 5:54 AM AST 7:12 PM AST
Nautical Twilight 5:28 AM AST 7:37 PM AST
Astronomical Twilight 5:02 AM AST 8:03 PM AST
Moon 8:10 AM AST (5/1) 9:09 PM AST (5/1)
Length of Visible Light 13h 18m
Length of Day
12h 33m
Waxing Crescent, 6% of the Moon is Illuminated
May 1
Waxing Crescent
May 6
First Quarter
May 14
Full
May 21
Last Quarter
May 28
New

Hourly Weather History & Observations

Time (AST) Temp. Heat Index Dew Point Humidity Pressure Visibility Wind Dir Wind Speed Gust Speed Precip Events Conditions
12:00 AM 78.8 °F - 73.4 °F 83% 29.92 in 6.2 mi East 10.4 mph - N/A   Partly Cloudy
2:00 AM 79 °F - 74 °F 79% 29.88 in 11 mi ESE 11.5 mph - -   Haze
2:00 AM 78.8 °F - 73.4 °F 83% 29.86 in 6.2 mi ESE 11.5 mph - N/A   Partly Cloudy
3:00 AM 78.8 °F - 73.4 °F 83% 29.86 in 6.2 mi ESE 10.4 mph - N/A   Partly Cloudy
4:00 AM 78.8 °F - 73.4 °F 83% 29.86 in 6.2 mi East 11.5 mph - N/A   Partly Cloudy
5:00 AM 78.8 °F - 73.4 °F 83% 29.86 in 6.2 mi East 11.5 mph - N/A   Scattered Clouds
6:00 AM 78.8 °F - 73.4 °F 83% 29.89 in 6.2 mi East 12.7 mph - N/A   Scattered Clouds
7:00 AM 80.6 °F 85.4 °F 73.4 °F 79% 29.89 in 6.2 mi ESE 13.8 mph - N/A   Partly Cloudy
8:00 AM 81 °F - 74 °F 74% 29.93 in 9 mi ESE 15.0 mph - -   Haze
8:00 AM 80.6 °F 86.2 °F 75.2 °F 84% 29.92 in 6.2 mi ESE 13.8 mph - N/A   Partly Cloudy
9:00 AM 84.2 °F 90.9 °F 73.4 °F 70% 29.95 in 6.2 mi East 15.0 mph - N/A   Partly Cloudy
10:00 AM 86.0 °F 95.1 °F 75.2 °F 70% 29.95 in 6.2 mi East 15.0 mph - N/A   Scattered Clouds
11:00 AM 85 °F - 74 °F 61% 29.95 in 9 mi East 12.7 mph - -   Haze
11:00 AM 86.0 °F 93.4 °F 73.4 °F 66% 29.95 in 6.2 mi East 12.7 mph - N/A   Scattered Clouds
12:00 PM 86.0 °F 93.4 °F 73.4 °F 66% 29.95 in 6.2 mi East 15.0 mph - N/A   Scattered Clouds
1:00 PM 87.8 °F 93.8 °F 71.6 °F 58% 29.92 in 6.2 mi East 18.4 mph - N/A   Scattered Clouds
2:00 PM 87 °F - 70 °F 48% 29.90 in 9 mi ESE 19.6 mph - -   Haze
2:00 PM 86.0 °F 90.4 °F 69.8 °F 58% 29.89 in 6.2 mi ESE 19.6 mph - N/A   Scattered Clouds
3:00 PM 86.0 °F 91.8 °F 71.6 °F 62% 29.86 in 6.2 mi ESE 18.4 mph - N/A   Scattered Clouds
4:00 PM 86.0 °F 93.4 °F 73.4 °F 66% 29.86 in 6.2 mi East 16.1 mph - N/A   Scattered Clouds
5:00 PM 84 °F - 72 °F 61% 29.85 in 7 mi East 15.0 mph - -   Haze
5:00 PM 84.2 °F 90.9 °F 73.4 °F 70% 29.83 in 6.2 mi East 15.0 mph - N/A   Scattered Clouds
6:00 PM 82.4 °F 88.2 °F 73.4 °F 74% 29.83 in 6.2 mi ESE 13.8 mph - N/A   Partly Cloudy
7:00 PM 80.6 °F 84.6 °F 71.6 °F 74% 29.86 in - ESE 13.8 mph - N/A   Clear
8:00 PM 80 °F - 72 °F 71% 29.88 in 6 mi ESE 13.8 mph - -   Haze
8:00 PM 80.6 °F 84.6 °F 71.6 °F 74% 29.86 in - ESE 12.7 mph - N/A   Clear
9:00 PM 80.6 °F 84.6 °F 71.6 °F 74% 29.89 in - ESE 13.8 mph - N/A   Clear
10:00 PM 80.6 °F 85.4 °F 73.4 °F 79% 29.92 in 6.2 mi East 15.0 mph - N/A   Partly Cloudy
11:00 PM 79 °F - 73 °F 76% 29.89 in 6 mi East 13.8 mph - -   Haze
11:00 PM 78.8 °F - 73.4 °F 83% 29.92 in 6.2 mi East 15.0 mph - N/A   Partly Cloudy